Wind_Speed
19 18 19 19 19 20 20 19 19 19 19 19 18 18 19 20 20 20 20 20 21 21 22 23 24 24 25 24 24 24 25 26 26 26 26 26 26 25
19 19 19 19 19 20 20 20 19 20 19 18 18 18 19 19 19 20 21 21 21 21 22 23 25 24 24 24 24 25 25 26 26 27 27 27 27 27
19 19 19 19 19 19 20 20 20 20 20 19 18 19 20 20 20 20 21 21 21 22 22 23 23 23 23 24 24 25 25 25 25 26 27 27 28 28
19 19 19 20 20 20 20 20 20 20 20 19 20 20 20 20 21 21 21 22 22 22 23 23 24 25 24 24 25 25 25 25 26 26 26 27 28 29
18 19 19 20 21 21 20 20 19 20 20 20 20 21 21 21 22 22 23 23 23 22 23 23 24 24 25 26 25 26 25 26 26 27 27 28 28 28
18 19 19 20 20 21 20 20 19 19 20 20 20 20 21 21 21 22 23 22 22 23 23 24 25 24 25 26 25 25 25 26 26 26 27 28 28 29
18 19 19 19 19 20 20 20 20 20 21 21 21 21 21 21 22 22 22 22 23 23 24 25 24 24 25 25 26 26 26 26 27 27 27 28 29 29
20 20 20 20 20 20 21 21 21 21 21 21 22 22 22 23 23 23 23 23 23 24 25 25 25 24 24 25 26 27 27 27 27 28 29 30 30 30
21 21 20 21 21 21 21 21 22 22 22 23 23 23 23 24 24 24 24 25 24 24 25 25 25 25 26 26 26 27 28 28 28 28 29 30 30 30
22 22 22 22 22 22 21 22 22 22 23 23 23 24 25 25 25 25 26 26 25 25 25 25 25 25 25 26 26 27 27 28 28 28 29 29 30 31
22 23 23 23 22 22 22 22 23 23 24 25 25 25 25 26 26 27 27 27 26 26 25 26 26 27 27 27 27 27 28 28 28 28 28 29 30 31
23 23 23 23 22 22 23 24 24 24 25 25 25 26 27 27 27 27 27 27 26 25 26 27 26 26 27 27 27 28 29 29 29 29 29 30 31 31
23 23 23 22 22 23 23 24 24 24 25 25 26 27 27 28 28 28 27 27 26 26 26 27 27 27 27 27 27 27 28 29 29 29 29 30 31 31
23 23 22 22 22 22 23 23 24 24 25 26 26 27 27 27 26 26 26 26 26 25 26 26 26 26 27 27 27 26 27 27 27 28 29 29 30 30
23 24 24 23 23 23 23 23 23 24 25 25 26 26 26 26 26 26 26 26 25 25 25 26 26 26 27 27 27 27 27 26 27 27 28 28 29 30
25 25 24 24 23 23 24 24 25 25 25 25 26 26 26 26 27 27 26 26 26 25 26 26 26 27 28 28 28 27 26 27 28 28 28 28 29 29
25 25 25 24 24 24 25 25 25 26 26 26 27 27 27 27 27 27 26 26 26 26 25 25 25 26 27 27 27 27 27 27 28 28 28 29 29 29
24 25 25 25 24 24 25 25 25 25 26 26 27 27 27 27 26 26 26 27 26 26 25 25 26 26 26 27 28 28 28 28 28 28 27 27 28 28
24 25 24 24 23 23 23 24 24 25 26 26 26 26 27 27 26 26 26 26 26 25 25 26 25 26 26 26 26 27 27 27 27 27 26 26 27 27
24 24 24 23 23 23 23 23 24 25 25 25 26 26 27 27 26 26 26 25 25 25 24 24 24 25 25 25 24 24 25 25 25 25 25 25 25 26
23 23 23 23 23 23 23 23 24 25 26 26 26 26 26 26 26 27 26 25 25 25 25 24 25 25 25 25 24 25 25 25 25 25 25 26 25 25
22 22 22 22 22 22 23 23 24 24 24 25 26 26 26 27 27 27 26 26 25 25 25 25 25 25 25 25 25 25 24 24 24 25 25 25 25 24
20 21 21 21 21 22 23 23 24 24 24 25 25 25 26 26 27 26 25 25 25 25 25 25 25 25 25 25 26 25 25 25 24 24 24 25 25 25
Wind_Direction
277 279 281 282 281 278 277 278 278 277 278 278 277 277 277 276 277 276 275 275 272 271 268 267 268 267 267 268 269 271 270 268 267 265 264 263 263 264
276 277 279 281 283 280 277 277 279 276 276 277 278 279 278 275 275 276 275 274 271 270 269 268 269 268 268 266 268 270 269 266 265 265 264 263 263 265
275 275 277 278 279 279 278 277 278 277 275 278 278 278 278 277 278 276 273 273 273 272 272 272 271 270 270 271 271 270 269 266 264 263 263 263 264 265
273 272 275 277 278 279 279 279 279 278 276 275 277 277 276 277 278 277 277 277 276 274 274 273 272 273 273 274 274 272 271 268 266 266 266 264 264 265
274 273 276 277 278 279 280 281 280 277 276 276 277 278 279 279 278 278 278 279 278 276 275 274 273 273 274 274 274 271 270 268 267 266 266 265 266 266
276 277 278 279 279 279 278 279 280 279 279 280 280 280 281 281 282 282 282 282 281 279 278 275 274 273 274 274 273 272 270 268 267 267 266 264 265 267
277 279 280 281 280 278 277 277 278 279 279 281 283 284 284 284 284 286 286 284 283 281 280 278 276 275 274 273 273 273 273 271 269 269 267 265 265 267
278 281 282 282 281 278 276 278 280 280 279 279 280 283 283 284 285 286 287 286 286 283 283 282 278 277 276 275 273 273 273 273 273 271 269 267 266 266
277 279 281 283 283 281 278 278 279 280 279 279 279 282 283 285 286 287 289 290 289 287 285 284 280 279 278 277 275 274 274 273 273 272 270 267 265 265
277 279 280 283 283 281 278 278 279 279 280 280 280 281 282 284 286 287 288 289 288 287 285 285 283 281 278 278 277 275 275 274 273 273 271 268 266 265
279 280 281 282 281 280 279 280 279 280 281 281 281 281 283 284 286 287 288 288 287 287 286 285 283 281 280 279 278 276 275 275 272 272 271 269 267 265
278 280 281 280 280 281 280 279 279 280 280 280 280 282 283 285 287 287 286 287 287 287 286 285 283 282 282 282 280 278 278 277 274 272 272 269 268 267
278 279 280 279 280 282 282 280 279 279 280 281 282 283 284 286 287 286 286 286 286 286 286 286 284 283 284 283 284 282 280 279 275 274 274 272 270 269
277 278 279 278 280 282 283 281 279 279 280 282 283 284 284 286 287 286 286 286 287 287 286 286 286 285 285 286 285 283 281 279 278 276 276 274 271 270
276 277 278 279 280 281 283 283 282 282 283 285 285 285 285 285 286 287 287 286 286 287 287 287 286 286 285 284 284 284 282 280 280 279 279 278 275 271
276 278 278 278 279 281 281 283 284 285 286 287 287 287 286 286 286 286 287 286 286 287 288 287 285 286 286 286 286 285 284 283 281 281 281 280 278 274
277 276 276 277 278 279 281 282 283 285 287 287 287 286 286 287 287 286 287 288 287 288 288 288 287 287 289 288 286 285 287 286 283 282 281 280 278 275
276 276 276 277 279 280 282 283 284 285 286 286 287 286 287 288 287 287 288 289 289 288 288 288 288 289 291 289 287 287 287 288 286 284 283 281 279 276
276 277 277 279 281 281 284 285 286 287 287 288 289 289 289 289 288 288 288 289 289 288 288 289 290 292 293 292 289 289 289 289 287 284 284 283 281 278
277 278 278 279 281 282 284 286 287 288 288 288 289 289 289 288 288 288 289 289 289 289 289 290 291 293 295 296 294 293 291 290 288 286 285 284 282 279
279 278 279 280 282 283 284 285 287 288 289 289 290 290 289 288 288 288 288 288 288 290 291 291 291 292 294 295 296 296 294 292 291 289 287 286 283 280
280 280 280 281 283 285 286 287 288 288 289 290 291 290 289 290 289 287 287 286 287 288 290 290 291 291 293 293 295 296 294 292 291 291 290 289 286 283
282 281 280 282 284 287 288 288 289 289 289 290 289 288 290 290 289 286 285 286 287 288 289 290 290 291 292 294 294 294 294 293 293 291 290 290 288 287
Height
5810 5810 5809 5808 5808 5808 5808 5808 5809 5809 5809 5808 5808 5808 5808 5808 5808 5808 5808 5808 5808 5808 5808 5809 5809 5810 5811 5811 5812 5813 5813 5814 5815 5816 5817 5818 5819 5819
5805 5805 5804 5804 5804 5803 5803 5803 5803 5803 5804 5804 5803 5803 5802 5803 5803 5802 5802 5802 5802 5802 5802 5802 5803 5803 5804 5804 5805 5805 5806 5807 5808 5809 5809 5810 5811 5812
5799 5799 5799 5799 5799 5798 5798 5798 5798 5798 5798 5798 5798 5798 5797 5797 5797 5797 5797 5796 5796 5796 5796 5796 5796 5796 5797 5797 5798 5798 5799 5799 5800 5801 5802 5803 5804 5804
5793 5794 5794 5794 5794 5793 5793 5793 5792 5792 5792 5793 5793 5792 5792 5791 5791 5791 5791 5790 5790 5790 5790 5790 5790 5790 5790 5790 5790 5791 5791 5792 5792 5793 5794 5795 5796 5796
5788 5788 5788 5788 5788 5788 5788 5787 5787 5787 5787 5787 5787 5787 5786 5786 5785 5785 5785 5784 5784 5783 5783 5783 5783 5783 5783 5783 5783 5783 5784 5784 5785 5785 5785 5786 5787 5788
5783 5783 5783 5782 5782 5782 5782 5782 5782 5782 5781 5781 5781 5781 5781 5780 5779 5779 5778 5777 5777 5776 5776 5775 5775 5775 5775 5775 5775 5775 5776 5776 5776 5776 5777 5778 5778 5779
5778 5778 5777 5777 5776 5776 5776 5776 5776 5776 5776 5776 5776 5776 5775 5774 5774 5773 5772 5771 5770 5769 5768 5768 5767 5767 5767 5767 5767 5767 5767 5767 5768 5768 5768 5769 5769 5770
5773 5773 5772 5771 5771 5770 5771 5771 5771 5770 5770 5770 5770 5770 5769 5768 5767 5766 5765 5764 5763 5763 5761 5760 5759 5759 5759 5759 5759 5759 5759 5759 5759 5759 5759 5760 5760 5761
5768 5767 5766 5766 5765 5764 5764 5764 5765 5764 5764 5764 5764 5764 5763 5762 5761 5760 5758 5757 5756 5755 5753 5753 5752 5751 5751 5751 5751 5751 5750 5750 5750 5750 5750 5750 5751 5752
5761 5761 5760 5760 5759 5758 5758 5758 5758 5758 5758 5758 5758 5757 5756 5755 5754 5753 5751 5750 5749 5747 5746 5745 5744 5743 5743 5742 5742 5742 5742 5741 5741 5741 5741 5741 5741 5742
5755 5755 5754 5754 5753 5752 5752 5752 5752 5752 5751 5751 5751 5750 5749 5748 5747 5745 5744 5743 5741 5740 5739 5737 5737 5736 5735 5734 5734 5733 5733 5733 5732 5732 5731 5731 5732 5732
5749 5748 5748 5747 5747 5746 5746 5746 5745 5745 5744 5744 5743 5743 5742 5741 5739 5738 5736 5735 5734 5733 5731 5730 5729 5727 5727 5726 5725 5725 5724 5723 5723 5723 5722 5722 5722 5722
5742 5742 5741 5741 5740 5739 5739 5738 5738 5738 5737 5736 5736 5735 5734 5733 5731 5730 5728 5727 5726 5725 5723 5722 5721 5719 5718 5718 5717 5716 5715 5714 5714 5713 5713 5713 5712 5713
5736 5735 5735 5734 5734 5733 5732 5731 5731 5730 5730 5729 5728 5727 5726 5725 5723 5722 5721 5719 5718 5717 5715 5714 5712 5711 5710 5710 5709 5708 5706 5706 5705 5705 5704 5703 5703 5703
5729 5729 5728 5727 5727 5726 5726 5725 5724 5723 5722 5722 5721 5720 5718 5717 5716 5714 5713 5712 5711 5709 5708 5706 5705 5703 5701 5701 5700 5699 5698 5697 5696 5695 5695 5694 5693 5693
5722 5722 5721 5720 5720 5719 5718 5718 5717 5716 5715 5715 5713 5712 5711 5709 5708 5707 5705 5704 5703 5702 5700 5698 5696 5695 5693 5692 5690 5689 5688 5688 5687 5685 5685 5684 5683 5683
5714 5714 5714 5713 5713 5712 5711 5711 5710 5709 5708 5707 5705 5704 5703 5702 5701 5699 5698 5696 5695 5694 5692 5690 5688 5686 5685 5683 5682 5681 5680 5678 5677 5675 5675 5674 5674 5673
5707 5707 5706 5706 5705 5704 5704 5703 5702 5701 5700 5699 5697 5696 5695 5694 5693 5691 5690 5688 5687 5685 5684 5682 5680 5679 5677 5675 5674 5672 5671 5669 5667 5666 5665 5664 5664 5663
5700 5699 5699 5698 5698 5697 5696 5695 5695 5694 5692 5691 5689 5688 5687 5686 5685 5683 5682 5681 5679 5678 5676 5674 5672 5670 5669 5668 5666 5663 5661 5659 5658 5656 5655 5655 5654 5654
5692 5692 5692 5691 5690 5690 5689 5688 5687 5686 5684 5683 5682 5681 5679 5678 5677 5676 5674 5673 5671 5670 5669 5667 5665 5663 5661 5659 5657 5655 5653 5650 5649 5648 5646 5645 5645 5644
5685 5685 5684 5684 5683 5683 5682 5681 5679 5678 5677 5676 5674 5673 5672 5670 5669 5668 5666 5665 5664 5662 5661 5659 5657 5655 5653 5651 5650 5648 5645 5643 5641 5639 5638 5637 5636 5635
5678 5678 5678 5677 5676 5675 5674 5673 5672 5671 5669 5668 5667 5665 5664 5662 5661 5659 5658 5657 5656 5654 5653 5652 5649 5647 5645 5643 5641 5640 5638 5636 5634 5631 5630 5628 5627 5627
5672 5671 5671 5670 5669 5668 5667 5666 5665 5664 5662 5661 5659 5658 5656 5654 5653 5651 5650 5649 5648 5646 5645 5643 5642 5640 5638 5635 5633 5631 5630 5628 5626 5624 5622 5620 5619 5618